User: anonymous   Login
Location: Caltech
(34.1382°N, 118.1253°W)
Time: 12:45:24
(UTC-08:00)
Language:

Cosmos 1980 Rocket - Orbit

View from above orbital plane
View from above orbital plane
View from above satellite
View from above satellite

Ground track
Ground track

The orbit data is extracted from the following two-line orbital elements,

1 19650U 88102B   17056.09178417 -.00000080  00000-0 -16115-4 0  9994
2 19650  70.9971 250.8016 0014649 344.6665  15.4012 14.15750107460123
Epoch (UTC): 25 February 2017 02:12:10
Eccentricity: 0.0014649
inclination: 70.9971°
perigee height: 829 km
apogee height: 850 km
right ascension of ascending node: 250.8016°
argument of perigee: 344.6665°
revolutions per day: 14.15750107
mean anomaly at epoch: 15.4012°
orbit number at epoch: 46012

The dashed part of the orbit path shows where the satellite is in the earth's shadow,  

DLR